• Join FlightAware (Why Join?)
  • Login
  • US Flag 
11:26PM EDT


 

Airport Tracker/Info


-or-


 

Live Flight TrackerFlight Track Log ✈ EJA929 ✈ 27-Feb-2014 ✈ KJAX - KMIA

Flight Track Log - Related Links

Times and Time Zones

All times are in EST time to prevent confusion due to time zone crossing. See the EJA929 flight status page for this flight to view local times or setup timezone preferences in your user account.

Time Position Orientation Groundspeed Altitude Reporting Facility
EST Latitude Longitude Course Direction KTS MPH feet Rate Location/Type
11:24AM 30.5031 -81.6797 112° Southeast 180 207 500  Level Jacksonville Center
11:24AM 30.4858 -81.6294 99° East 234 269 2,900 2,760 Climbing Jacksonville Center
11:25AM 30.4542 -81.5936 136° Southeast 268 308 4,900 3,600 Climbing Jacksonville Center
11:25AM 30.4308 -81.5700 139° Southeast 274 315 6,600 4,080 Climbing Jacksonville Center
11:26AM 30.3972 -81.5367 139° Southeast 268 308 9,000 3,780 Climbing Jacksonville Center
11:26AM 30.3739 -81.5153 142° Southeast 262 302 10,500 3,000 Climbing Jacksonville Center
11:27AM 30.3358 -81.4606 129° Southeast 285 328 12,000 2,220 Climbing Jacksonville Center
11:27AM 30.3250 -81.4439 127° Southeast 311 358 12,800 1,680 Climbing Jacksonville Center
11:28AM 30.2931 -81.3817 121° Southeast 318 366 13,700 1,380 Climbing Jacksonville Center
11:29AM 30.2356 -81.2794 123° Southeast 336 387 15,200 1,980 Climbing Jacksonville Center
11:30AM 30.1797 -81.1722 121° Southeast 370 426 17,700 2,460 Climbing Jacksonville Center
11:31AM 30.1239 -81.0675 122° Southeast 384 442 20,200 2,460 Climbing Jacksonville Center
11:32AM 30.0536 -80.9728 131° Southeast 384 442 22,700 2,160 Climbing Jacksonville Center
11:33AM 29.9528 -80.9244 157° South 374 430 24,600 1,740 Climbing Jacksonville Center
11:34AM 29.8456 -80.8764 159° South 387 445 26,300 1,560 Climbing Jacksonville Center
11:35AM 29.7281 -80.8333 162° South 422 486 27,800 840 Climbing Jacksonville Center
11:36AM 29.6006 -80.8336 180° South 438 504 28,000 60 Climbing Jacksonville Center
11:37AM 29.4711 -80.8292 178° South 458 527 28,000  Level Jacksonville Center
11:38AM 29.3397 -80.8272 179° South 465 535 28,000  Level Jacksonville Center
11:39AM 29.2081 -80.8228 178° South 470 541 28,000  Level Jacksonville Center
11:41AM 29.0222 -80.8200 179° South 481 554 28,000  Level Miami Center
11:42AM 28.8844 -80.8197 180° South 468 539 28,000  Level Miami Center
11:43AM 28.7550 -80.8197 180° South 468 539 28,000  Level Miami Center
11:44AM 28.6364 -80.8133 177° South 468 539 28,000  Level Miami Center
11:45AM 28.4953 -80.7894 172° South 468 539 28,000  Level Miami Center
11:46AM 28.3794 -80.7500 163° South 474 545 28,000  Level Miami Center
11:47AM 28.2536 -80.6936 158° South 485 558 28,000  Level Miami Center
11:48AM 28.1278 -80.6422 160° South 485 558 28,000  Level Miami Center
11:49AM 27.9994 -80.5981 163° South 479 551 28,000 -120 Level Miami Center
11:50AM 27.8711 -80.5539 163° South 479 551 27,800 -960 Descending Miami Center
11:51AM 27.7344 -80.5119 165° South 474 545 26,100 -1,620 Descending Miami Center
11:52AM 27.6125 -80.4636 161° South 469 540 24,600 -1,080 Descending Miami Center
11:53AM 27.4989 -80.4178 160° South 457 526 24,000 -300 Descending Miami Center
11:54AM 27.4058 -80.3822 161° South 445 512 24,000  Level Miami Center
11:55AM 27.2694 -80.3244 159° South 440 506 24,000 -240 Level Miami Center
11:56AM 27.1536 -80.2789 161° South 440 506 23,600 -1,620 Descending Miami Center
11:57AM 27.0397 -80.2336 160° South 440 506 20,800 -2,760 Descending Miami Center
11:58AM 26.9239 -80.1858 160° South 440 506 18,100 -2,460 Descending Miami Center
11:59AM 26.8225 -80.1436 160° South 440 506 15,900 -2,100 Descending Miami Center
12:00PM 26.7086 -80.1008 161° South 440 506 14,000 -1,080 Descending Miami Center
12:01PM 26.5858 -80.0742 169° South 420 483 13,800 -1,020 Descending Miami Center
12:01PM 26.5403 -80.0658 171° South 411 473 12,600 -3,240 Descending Miami Center
12:01PM 26.4903 -80.0575 172° South 400 460 11,200 -2,520 Descending Miami Center
12:02PM 26.4883 -80.0553 134° Southeast 407 468 11,100 -240 Descending Miami Center
12:02PM 26.3967 -80.0411 172° South 301 346 11,000 -240 Descending Miami Center
12:03PM 26.3861 -80.0386 168° South 359 413 10,900 -1,020 Descending Miami Center
12:03PM 26.3133 -80.0250 170° South 305 351 10,000 -900 Descending Miami Center
12:04PM 26.3114 -80.0250 180° South 310 357 10,000  Level Miami Center
12:04PM 26.2342 -80.0231 179° South 284 327 10,000 -120 Level Miami Center
12:05PM 26.2342 -80.0231 179° South 298 343 9,900 -240 Descending Miami Center
12:05PM 26.1564 -80.0417 192° South 286 329 9,800 -240 Descending Miami Center
12:06PM 26.1586 -80.0417 360° North 285 328 9,700 -1,380 Descending Miami Center
12:07PM 26.0764 -80.0650 194° South 276 318 8,400 -1,320 Descending Miami Center
12:07PM 26.0828 -80.0628 17° North 285 328 8,400 -1,800 Level Miami Center
12:08PM 26.0031 -80.0861 195° South 270 311 6,600 -1,800 Descending Miami Center
12:08PM 26.0094 -80.0817 32° Northeast 280 322 6,600 -660 Level Miami Center
12:09PM 25.9258 -80.0747 176° South 275 316 5,900 -1,380 Descending Miami Center
12:10PM 25.8531 -80.0614 171° South 266 306 4,000 -1,920 Descending Miami Center
12:10PM 25.8511 -80.0589 131° Southeast 275 316 4,000 -1,080 Level Miami Center
12:11PM 25.8061 -80.1039 222° Southwest 212 244 2,900 -960 Descending Miami Center
12:11PM 25.8081 -80.1156 280° West 213 245 3,000 -420 Climbing Miami Center
12:12PM 25.8050 -80.1639 266° West 148 170 2,500 -840 Descending Miami Center
12:13PM 25.8039 -80.2056 268° West 134 154 1,400 -960 Descending Miami Center
12:14PM 25.8031 -80.2469 269° West 133 153 600 -840 Descending Miami Center
12:16PM 25.7954 -80.2901 273° West  Level Estimated
12:23PM 25.7954 -80.2901 90° East  Level Estimated